Tracking 18850 objects as of 22-Nov-2017
HD Live streaming from Space Station
objects crossing your sky now

FENGYUN 1C DEB

Track FENGYUN 1C DEB now!
10-day predictions


NORAD ID: 31424
Int'l Code: 1999-025BTL
Perigee: 809.6 km
Apogee: 949.1 km
Inclination: 98.4 °
Period: 102.4 minutes
Semi major axis: 7250 km
RCS: 0.0107 m2 (small)
Launch date: May 10, 1999
Source: People's Republic of China (PRC)
Launch site: Taiyaun Space Center, China (TSC)

Note: This is SATELLITE DEBRIS
aabbcc
Your satellite tracking list
Your tracking list is empty




NASA's NSSDC Master Catalog

Two Line Element Set (TLE):
1 31424U 99025BTL 17325.28741991  .00000002  00000-0  24041-4 0  9995
2 31424  98.4477 127.6389 0096186 162.4071 319.1960 14.06266503544591
Source of the keplerian elements: AFSPC